FW1991 Weather Reports


time (UTC)temp
C
wind
direction
speed
KPH
gust
KPH
rain 1hr
cm
rain 24hr
cm
rain mn
cm
humidity
%
barometer
mb
20260506214558 17 348 4.8 19.3 0.00 0.00 0.00 80 1013.0
20260506213057 17 5 4.8 20.9 0.00 0.00 0.00 79 1012.8
20260506211556 18 38 4.8 25.7 0.00 0.00 0.00 78 1012.8
20260506210056 18 346 4.8 19.3 0.00 0.00 0.00 76 1013.2
20260506204555 19 58 4.8 25.7 0.00 0.00 0.00 77 1013.2
20260506203054 20 333 9.7 24.1 0.00 0.00 0.00 77 1013.1
20260506201615 20 355 8.0 22.5 0.00 0.00 0.00 78 1013.0
20260506200053 20 59 8.0 20.9 0.00 0.00 0.00 79 1012.8
20260506194554 20 349 4.8 20.9 0.00 0.00 0.00 78 1012.6
20260506193054 21 322 6.4 29.0 0.00 0.00 0.00 76 1012.5
20260506191551 22 54 3.2 19.3 0.00 0.00 0.00 78 1012.4
20260506190051 23 342 4.8 17.7 0.00 0.00 0.00 78 1012.7
20260506184554 23 348 3.2 9.7 0.00 0.00 0.00 77 1012.6
20260506183050 23 11 1.6 12.9 0.00 0.00 0.00 77 1012.4
20260506181549 22 11 1.6 9.7 0.00 0.00 0.00 80 1012.5
20260506180048 22 67 0.0 14.5 0.00 0.00 0.00 81 1012.4
20260506174548 21 64 0.0 12.9 0.00 0.00 0.00 81 1012.3
20260506173105 21 74 3.2 12.9 0.00 0.00 0.00 82 1012.4
20260506171555 20 355 1.6 12.9 0.00 0.00 0.00 84 1012.6
20260506170048 19 80 8.0 16.1 0.00 0.00 0.00 85 1012.3
20260506164545 18 355 4.8 16.1 0.00 0.00 0.00 89 1012.9
20260506163100 17 77 6.4 20.9 0.00 0.00 0.00 91 1013.0
20260506161544 17 36 4.8 19.3 0.00 0.00 0.00 89 1013.9
20260506160038 17 331 8.0 25.7 0.00 0.00 0.00 89 1013.4
20260506154537 18 321 4.8 24.1 0.00 0.00 0.00 89 1013.3
20260506153029 20 334 6.4 25.7 0.00 0.00 0.00 86 1013.0
20260506151524 24 313 4.8 22.5 0.00 0.00 0.00 83 1012.1
20260506150022 24 178 0.0 6.4 0.00 0.00 0.00 89 1012.0
20260506144519 24 192 1.6 8.0 0.00 0.00 0.00 89 1011.2
20260506143018 24 192 0.0 4.8 0.00 0.00 0.00 89 1011.0
20260506141516 23 213 0.0 8.0 0.00 0.00 0.00 90 1010.4
20260506140115 23 159 0.0 1.6 0.00 0.00 0.00 92 1011.1
20260506134513 23 136 0.0 3.2 0.00 0.00 0.00 92 1010.5
20260506133011 23 171 0.0 3.2 0.00 0.00 0.00 92 1010.5
20260506131517 23 176 0.0 4.8 0.00 0.00 0.00 93 1010.3
20260506130008 23 103 1.6 11.3 0.00 0.00 0.00 93 1010.3
20260506124506 22 55 0.0 4.8 0.00 0.00 0.00 93 1010.0
20260506123006 22 308 0.0 4.8 0.00 0.00 0.00 93 1010.0
20260506121505 22 303 0.0 1.6 0.00 0.00 0.00 93 1010.1
20260506120005 22 303 0.0 3.2 0.00 0.00 0.00 93 1009.9
20260506114504 22 300 0.0 0.0 0.00 0.00 0.00 93 1009.9
20260506113004 22 209 0.0 0.0 0.00 0.00 0.00 93 1010.1
20260506111503 22 211 0.0 6.4 0.00 0.00 0.00 93 1010.1
20260506110005 22 181 0.0 1.6 0.00 0.00 0.00 92 1010.0
20260506104501 22 182 0.0 1.6 0.00 0.00 0.00 93 1009.8
20260506103100 22 182 0.0 6.4 0.00 0.00 0.00 93 1009.6
20260506101558 22 206 0.0 6.4 0.00 0.00 0.00 93 1009.6
20260506100057 23 197 0.0 1.6 0.00 0.00 0.00 93 1009.3
20260506094556 23 192 0.0 9.7 0.00 0.00 0.00 93 1009.0
20260506093110 23 202 1.6 9.7 0.00 0.00 0.00 92 1008.9
20260506091554 23 193 0.0 11.3 0.00 0.00 0.00 92 1008.7
20260506090058 23 185 0.0 6.4 0.00 0.00 0.00 92 1008.4
20260506084554 23 188 1.6 12.9 0.00 0.00 0.00 92 1008.6
20260506083053 23 198 0.0 11.3 0.00 0.00 0.00 92 1008.7
20260506081551 23 205 3.2 16.1 0.00 0.00 0.00 92 1008.5
20260506073049 23 206 0.0 8.0 0.00 0.00 0.00 91 1008.9
20260506071547 23 228 3.2 14.5 0.00 0.00 0.00 91 1009.1
20260506061557 23 188 1.6 14.5 0.00 0.00 0.00 91 1009.2
20260506044537 23 146 1.6 11.3 0.00 0.00 0.00 90 1009.0
20260506043035 23 214 1.6 11.3 0.00 0.00 0.00 89 1009.1
20260506041535 23 184 1.6 9.7 0.00 0.00 0.00 89 1009.0
20260506040034 24 221 3.2 11.3 0.00 0.00 0.00 88 1008.8
20260506034534 24 44 1.6 11.3 0.00 0.00 0.00 88 1008.6
20260506033034 24 117 0.0 9.7 0.00 0.00 0.00 88 1008.6
20260506031533 24 107 1.6 9.7 0.00 0.00 0.00 87 1008.5
20260506030034 25 158 0.0 11.3 0.00 0.00 0.00 86 1008.1
20260506024531 25 174 1.6 14.5 0.00 0.00 0.00 85 1008.0
20260506023031 25 118 1.6 9.7 0.00 0.00 0.00 84 1007.7
20260506021530 25 134 0.0 6.4 0.00 0.00 0.00 83 1007.4
20260506020100 25 125 0.0 11.3 0.00 0.00 0.00 83 1007.0
20260506014529 25 109 1.6 6.4 0.00 0.00 0.00 82 1007.0
20260506013029 26 209 0.0 4.8 0.00 0.00 0.00 81 1007.0
20260506011528 26 130 0.0 4.8 0.00 0.00 0.00 80 1007.0
20260506010030 26 149 0.0 4.8 0.00 0.00 0.00 79 1007.0
20260506004526 26 119 0.0 4.8 0.00 0.00 0.00 79 1007.0
20260506003026 27 155 0.0 6.4 0.00 0.00 0.00 78 1007.0
20260506001525 27 182 0.0 3.2 0.00 0.00 0.00 77 1007.1
20260506000041 27 182 0.0 12.9 0.00 0.00 0.00 77 1006.9
20260505234524 27 165 1.6 8.0 0.00 0.00 0.00 75 1006.7
20260505233022 27 217 0.0 12.9 0.00 0.00 0.00 75 1006.6
20260505231528 27 175 3.2 12.9 0.00 0.00 0.00 75 1006.5
20260505230034 28 136 1.6 8.0 0.00 0.00 0.00 75 1006.5
20260505224522 28 250 1.6 11.3 0.00 0.00 0.00 74 1006.5
20260505223021 28 203 1.6 6.4 0.00 0.00 0.00 75 1006.3
20260505221519 28 216 4.8 9.7 0.00 0.00 0.00 73 1006.3
20260505220018 28 190 1.6 16.1 0.00 0.00 0.00 73 1006.5